EW2293 Weather Reports


time (UTC)temp
C
wind
direction
speed
KPH
gust
KPH
rain 1hr
cm
rain 24hr
cm
rain mn
cm
humidity
%
barometer
mb
20260506015121 16 145 3.2 4.8 0.00 0.00 0.00 90 1017.1
20260506014121 16 135 3.2 6.4 0.00 0.00 0.00 89 1017.1
20260506013121 17 147 3.2 6.4 0.00 0.00 0.00 88 1017.0
20260506012122 17 131 3.2 6.4 0.00 0.00 0.00 86 1016.9
20260506011124 17 140 3.2 8.0 0.00 0.00 0.00 85 1017.0
20260506010121 17 132 3.2 6.4 0.00 0.00 0.00 84 1016.9
20260506005122 17 152 3.2 6.4 0.00 0.00 0.00 83 1016.8
20260506004121 18 141 4.8 9.7 0.00 0.00 0.00 81 1016.8
20260506003122 18 149 4.8 11.3 0.00 0.00 0.00 80 1016.7
20260506002121 18 130 4.8 9.7 0.00 0.00 0.00 78 1016.6
20260506001122 19 161 4.8 9.7 0.00 0.00 0.00 76 1016.7
20260506000123 20 172 4.8 8.0 0.00 0.00 0.00 76 1016.5
20260505235122 20 173 6.4 12.9 0.00 0.00 0.00 74 1016.7
20260505234122 20 176 6.4 11.3 0.00 0.00 0.00 73 1016.7
20260505233142 20 164 6.4 9.7 0.00 0.00 0.00 72 1016.6
20260505232123 21 170 9.7 19.3 0.00 0.00 0.00 72 1016.7
20260505231123 21 162 6.4 16.1 0.00 0.00 0.00 72 1016.7
20260505230121 21 166 11.3 19.3 0.00 0.00 0.00 71 1016.6
20260505225122 21 179 9.7 16.1 0.00 0.00 0.00 70 1016.6
20260505224123 22 189 8.0 16.1 0.00 0.00 0.00 70 1016.6
20260505223143 22 169 9.7 16.1 0.00 0.00 0.00 68 1016.6
20260505222122 22 191 11.3 19.3 0.00 0.00 0.00 67 1016.6
20260505221143 23 198 9.7 16.1 0.00 0.00 0.00 66 1016.5
20260505220121 23 172 8.0 12.9 0.00 0.00 0.00 66 1016.5
20260505215122 23 185 9.7 16.1 0.00 0.00 0.00 65 1016.6
20260505214121 23 191 11.3 16.1 0.00 0.00 0.00 64 1016.6
20260505213122 24 178 6.4 11.3 0.00 0.00 0.00 64 1016.3
20260505212122 23 177 11.3 22.5 0.00 0.00 0.00 65 1016.3
20260505211121 24 177 9.7 16.1 0.00 0.00 0.00 64 1016.4
20260505210121 24 183 9.7 17.7 0.00 0.00 0.00 62 1016.5
20260505205123 23 180 9.7 22.5 0.00 0.00 0.00 63 1016.2
20260505204121 25 180 11.3 20.9 0.00 0.00 0.00 63 1016.2
20260505203121 23 175 9.7 16.1 0.00 0.00 0.00 63 1016.5
20260505202122 25 182 11.3 17.7 0.00 0.00 0.00 59 1016.4
20260505201121 25 186 9.7 16.1 0.00 0.00 0.00 60 1016.5
20260505200122 25 189 9.7 17.7 0.00 0.00 0.00 60 1016.8
20260505195121 25 163 9.7 12.9 0.00 0.00 0.00 60 1016.8
20260505194142 26 201 9.7 20.9 0.00 0.00 0.00 56 1016.9
20260505193121 26 183 12.9 24.1 0.00 0.00 0.00 56 1017.0
20260505192121 25 187 11.3 19.3 0.00 0.00 0.00 56 1017.2
20260505191142 26 186 11.3 19.3 0.00 0.00 0.00 55 1017.4
20260505190121 26 183 9.7 16.1 0.00 0.00 0.00 53 1017.4
20260505185123 26 180 9.7 17.7 0.00 0.00 0.00 52 1017.4
20260505184122 25 185 11.3 20.9 0.00 0.00 0.00 53 1017.5
20260505183121 26 155 9.7 17.7 0.00 0.00 0.00 54 1017.5
20260505182122 26 173 11.3 17.7 0.00 0.00 0.00 56 1017.5
20260505181122 26 172 9.7 19.3 0.00 0.00 0.00 54 1017.6
20260505180121 26 178 9.7 19.3 0.00 0.00 0.00 55 1017.7
20260505175121 25 184 9.7 17.7 0.00 0.00 0.00 57 1017.6
20260505174144 25 181 12.9 24.1 0.00 0.00 0.00 55 1017.6
20260505173123 26 171 9.7 14.5 0.00 0.00 0.00 57 1017.7
20260505172144 26 187 9.7 17.7 0.00 0.00 0.00 56 1017.7
20260505171123 26 182 11.3 20.9 0.00 0.00 0.00 57 1017.7
20260505170122 25 153 11.3 19.3 0.00 0.00 0.00 56 1017.8
20260505165123 26 184 9.7 16.1 0.00 0.00 0.00 56 1017.8
20260505164143 25 178 9.7 20.9 0.00 0.00 0.00 58 1017.8
20260505163122 26 184 8.0 14.5 0.00 0.00 0.00 56 1017.8
20260505162123 25 134 8.0 14.5 0.00 0.00 0.00 58 1018.0
20260505161122 25 183 11.3 16.1 0.00 0.00 0.00 58 1018.3
20260505160122 26 173 9.7 17.7 0.00 0.00 0.00 59 1018.3
20260505153122 25 197 8.0 12.9 0.00 0.00 0.00 60 1018.4
20260505151142 25 153 8.0 14.5 0.00 0.00 0.00 59 1018.6
20260505150122 24 196 6.4 11.3 0.00 0.00 0.00 61 1018.7
20260505140122 23 192 8.0 12.9 0.00 0.00 0.00 66 1018.7
20260505130122 21 178 6.4 11.3 0.00 0.00 0.00 76 1018.7
20260505124142 20 185 6.4 8.0 0.00 0.00 0.00 80 1018.7
20260505123123 20 176 4.8 8.0 0.00 0.00 0.00 81 1018.6
20260505122122 18 180 0.0 3.2 0.00 0.00 0.00 84 1018.6
20260505121122 17 135 0.0 0.0 0.00 0.00 0.00 87 1018.4
20260505120144 15 158 0.0 0.0 0.00 0.00 0.00 91 1018.5
20260505115122 15 23 0.0 0.0 0.00 0.00 0.00 92 1018.5
20260505114144 13 45 0.0 0.0 0.00 0.00 0.00 98 1018.3
20260505113122 11 23 0.0 0.0 0.00 0.00 0.00 99 1018.2
20260505112123 10 158 0.0 0.0 0.00 0.00 0.00 99 1018.1
20260505111122 9 270 0.0 0.0 0.00 0.00 0.00 99 1018.1
20260505110123 9 315 0.0 0.0 0.00 0.00 0.00 99 1017.9
20260505102143 8 180 0.0 0.0 0.00 0.00 0.00 99 1017.4
20260505101122 8 225 0.0 0.0 0.00 0.00 0.00 99 1017.2
20260505100121 8 270 0.0 0.0 0.00 0.00 0.00 99 1017.1
20260505095122 8 248 0.0 0.0 0.00 0.00 0.00 99 1017.0
20260505094122 8 270 0.0 0.0 0.00 0.00 0.00 99 1017.0
20260505093122 8 270 0.0 0.0 0.00 0.00 0.00 99 1017.0
20260505092122 9 203 0.0 0.0 0.00 0.00 0.00 99 1016.8
20260505091121 9 203 0.0 0.0 0.00 0.00 0.00 99 1016.8
20260505090143 9 248 0.0 0.0 0.00 0.00 0.00 99 1016.9
20260505085122 9 180 0.0 0.0 0.00 0.00 0.00 99 1016.6
20260505084122 9 180 0.0 0.0 0.00 0.00 0.00 99 1016.6
20260505083122 10 180 0.0 0.0 0.00 0.00 0.00 99 1016.7
20260505082122 10 180 0.0 0.0 0.00 0.00 0.00 99 1016.7
20260505081143 10 180 0.0 0.0 0.00 0.00 0.00 99 1016.5
20260505080121 10 270 0.0 0.0 0.00 0.00 0.00 99 1016.6
20260505075122 10 270 0.0 0.0 0.00 0.00 0.00 99 1016.6
20260505074122 10 180 0.0 0.0 0.00 0.00 0.00 99 1016.4
20260505073122 10 180 0.0 0.0 0.00 0.00 0.00 99 1016.5
20260505072122 10 158 0.0 0.0 0.00 0.00 0.00 99 1016.3
20260505071122 11 113 0.0 0.0 0.00 0.00 0.00 99 1016.4
20260505070143 11 180 0.0 0.0 0.00 0.00 0.00 99 1016.5
20260505065123 11 158 0.0 0.0 0.00 0.00 0.00 99 1016.5
20260505064123 11 248 0.0 0.0 0.00 0.00 0.00 99 1016.5
20260505063122 11 180 0.0 0.0 0.00 0.00 0.00 98 1016.6
20260505062122 11 225 0.0 0.0 0.00 0.00 0.00 98 1016.7
20260505061143 12 135 0.0 0.0 0.00 0.00 0.00 98 1016.9
20260505060123 12 128 0.0 3.2 0.00 0.00 0.00 98 1017.0
20260505055122 12 90 0.0 0.0 0.00 0.00 0.00 97 1017.0
20260505054122 12 129 0.0 3.2 0.00 0.00 0.00 97 1017.0
20260505053122 13 157 0.0 8.0 0.00 0.00 0.00 95 1017.0
20260505052122 13 156 3.2 6.4 0.00 0.00 0.00 94 1017.0
20260505051123 13 168 1.6 6.4 0.00 0.00 0.00 95 1017.1
20260505050123 13 138 1.6 4.8 0.00 0.00 0.00 96 1017.0
20260505041122 12 72 0.0 3.2 0.00 0.00 0.00 99 1017.1
20260505040122 12 196 0.0 3.2 0.00 0.00 0.00 98 1017.2
20260505035122 12 109 0.0 3.2 0.00 0.00 0.00 98 1017.2
20260505034123 12 171 0.0 4.8 0.00 0.00 0.00 98 1017.3
20260505033122 12 184 0.0 3.2 0.00 0.00 0.00 96 1017.3
20260505032144 12 180 0.0 0.0 0.00 0.00 0.00 96 1017.2
20260505031122 12 158 0.0 0.0 0.00 0.00 0.00 95 1017.5
20260505030122 13 135 0.0 0.0 0.00 0.00 0.00 94 1017.4
20260505025122 13 158 0.0 0.0 0.00 0.00 0.00 93 1017.4
20260505024122 13 111 3.2 3.2 0.00 0.00 0.00 93 1017.6
20260505023122 14 111 3.2 6.4 0.00 0.00 0.00 92 1017.4
20260505022122 14 122 1.6 3.2 0.00 0.00 0.00 89 1017.4
20260505021123 15 120 1.6 3.2 0.00 0.00 0.00 89 1017.2
20260505020143 15 138 1.6 6.4 0.00 0.00 0.00 87 1017.2